Location: Caltech
(34.1382°N, 118.1253°W)
Time: 01:53:18
(UTC-08:00)

Transit 2A - Visible Passes

Search period start: 11 December 2016 00:00
Search period end: 21 December 2016 00:00
Orbit: 597 x 962 km, 66.7° (Epoch: 10 December)

Date Brightness Start Highest point End Pass type
(mag) Time Alt. Az. Time Alt. Az. Time Alt. Az.
11 Dec 7.2 06:00:47 10° S 06:06:52 56° ESE 06:12:33 10° NE visible
12 Dec 7.9 05:27:16 10° S 05:32:57 38° ESE 05:38:18 10° NE visible
13 Dec 8.6 04:54:05 10° SSE 04:59:05 26° ESE 05:03:50 10° NE visible
14 Dec 9.1 04:21:24 10° SE 04:25:14 17° ESE 04:28:57 10° ENE visible
14 Dec 6.3 06:01:54 10° SW 06:08:03 64° WNW 06:13:45 10° NNE visible
15 Dec 9.4 03:50:06 10° ESE 03:51:27 11° ESE 03:52:47 10° E visible
15 Dec 6.3 05:27:48 10° SSW 05:34:03 89° ESE 05:39:50 10° NNE visible
16 Dec 6.8 04:53:58 10° SSW 05:00:05 61° ESE 05:05:46 10° NE visible
17 Dec 7.5 04:20:23 10° S 04:26:09 41° ESE 04:31:34 10° NE visible
17 Dec 7.1 06:04:16 10° WSW 06:09:26 28° NW 06:14:17 10° N visible
18 Dec 8.1 03:47:07 10° SSE 03:52:16 28° ESE 03:57:08 10° NE visible
18 Dec 6.7 05:29:37 10° SW 05:35:20 40° WNW 05:40:39 10° N visible
19 Dec 8.6 03:18:17 19° ESE 03:18:25 19° ESE 03:22:23 10° ENE visible
19 Dec 6.2 04:59:04 37° WSW 05:01:16 58° WNW 05:06:52 10° NNE visible
20 Dec 6.6 04:28:44 53° NNE 04:28:44 53° NNE 04:32:58 10° NNE visible
20 Dec 7.9 06:09:22 11° WNW 06:11:08 13° NW 06:13:33 10° NNW visible
